Time,TemperatureF,DewpointF,PressureIn,WindDirection,WindDirectionDegrees,WindSpeedMPH,WindSpeedGustMPH,Humidity,HourlyPrecipIn,Conditions,Clouds,dailyrainin,SoftwareType,DateUTC
2013-06-26 00:05:00,76.2,74.3,30.00,South,188,4.0,5.0,94,0.00,,,0.00,Wunderground v.1.15,2013-06-26 04:05:00,
2013-06-26 00:09:00,76.3,74.4,30.00,SSW,194,5.0,8.0,94,0.00,,,0.00,Wunderground v.1.15,2013-06-26 04:09:00,
2013-06-26 00:15:00,76.4,74.5,30.00,SW,222,6.0,7.0,94,0.00,,,0.00,Wunderground v.1.15,2013-06-26 04:15:00,
2013-06-26 00:29:00,76.5,74.6,30.00,SW,216,4.0,4.0,94,0.00,,,0.00,Wunderground v.1.15,2013-06-26 04:29:00,
2013-06-26 00:40:00,76.4,74.2,30.01,WSW,247,4.0,4.0,93,0.00,,,0.00,Wunderground v.1.15,2013-06-26 04:40:00,
2013-06-26 00:50:00,76.4,74.2,30.00,SSW,210,4.0,4.0,93,0.00,,,0.00,Wunderground v.1.15,2013-06-26 04:50:00,
2013-06-26 01:00:00,76.3,74.1,30.00,SSW,211,4.0,4.0,93,0.00,,,0.00,Wunderground v.1.15,2013-06-26 05:00:00,
2013-06-26 01:10:00,76.2,74.0,30.01,SW,226,1.0,1.0,93,0.00,,,0.00,Wunderground v.1.15,2013-06-26 05:10:00,
2013-06-26 01:24:00,76.1,74.2,30.01,SW,226,1.0,1.0,94,0.00,,,0.00,Wunderground v.1.15,2013-06-26 05:24:00,
2013-06-26 01:35:00,76.0,74.1,30.02,SW,226,0.0,0.0,94,0.00,,,0.00,Wunderground v.1.15,2013-06-26 05:35:00,
2013-06-26 01:45:00,75.9,74.0,30.02,SW,226,0.0,0.0,94,0.00,,,0.00,Wunderground v.1.15,2013-06-26 05:45:00,
2013-06-26 01:55:00,75.7,73.8,30.02,SW,226,0.0,0.0,94,0.00,,,0.00,Wunderground v.1.15,2013-06-26 05:55:00,
2013-06-26 02:05:00,75.6,73.8,30.01,SW,226,0.0,0.0,94,0.00,,,0.00,Wunderground v.1.15,2013-06-26 06:05:00,
2013-06-26 02:19:00,75.3,73.8,30.01,SW,226,0.0,0.0,95,0.00,,,0.00,Wunderground v.1.15,2013-06-26 06:19:00,
2013-06-26 02:30:00,75.1,73.6,30.01,SW,226,0.0,0.0,95,0.00,,,0.00,Wunderground v.1.15,2013-06-26 06:30:00,
2013-06-26 02:40:00,75.0,73.5,30.01,SW,226,0.0,0.0,95,0.00,,,0.00,Wunderground v.1.15,2013-06-26 06:40:00,
2013-06-26 02:50:00,74.9,73.4,30.01,SW,226,0.0,0.0,95,0.00,,,0.00,Wunderground v.1.15,2013-06-26 06:50:00,
2013-06-26 03:00:00,74.9,73.4,30.01,SW,226,0.0,0.0,95,0.00,,,0.00,Wunderground v.1.15,2013-06-26 07:00:00,
2013-06-26 03:10:00,75.0,73.5,30.01,SW,226,0.0,0.0,95,0.00,,,0.00,Wunderground v.1.15,2013-06-26 07:10:00,
2013-06-26 03:20:00,75.1,73.6,30.00,SW,226,2.0,4.0,95,0.00,,,0.00,Wunderground v.1.15,2013-06-26 07:20:00,
2013-06-26 03:35:00,75.1,73.6,30.00,SW,220,3.0,3.0,95,0.00,,,0.00,Wunderground v.1.15,2013-06-26 07:35:00,
2013-06-26 03:45:00,75.1,73.6,30.00,SSW,213,3.0,3.0,95,0.00,,,0.00,Wunderground v.1.15,2013-06-26 07:45:00,
2013-06-26 03:55:00,75.0,73.5,30.00,SSW,211,3.0,4.0,95,0.00,,,0.00,Wunderground v.1.15,2013-06-26 07:55:00,
2013-06-26 04:05:00,74.9,73.1,30.00,SW,219,3.0,3.0,94,0.00,,,0.00,Wunderground v.1.15,2013-06-26 08:05:00,
2013-06-26 04:19:00,74.9,73.1,30.00,SW,219,2.0,2.0,94,0.00,,,0.00,Wunderground v.1.15,2013-06-26 08:19:00,
2013-06-26 04:30:00,74.8,73.0,30.00,SW,219,0.0,0.0,94,0.00,,,0.00,Wunderground v.1.15,2013-06-26 08:30:00,
2013-06-26 04:40:00,74.7,72.9,30.00,SW,219,1.0,1.0,94,0.00,,,0.00,Wunderground v.1.15,2013-06-26 08:40:00,
2013-06-26 04:50:00,74.5,72.7,30.01,WSW,237,1.0,1.0,94,0.00,,,0.00,Wunderground v.1.15,2013-06-26 08:50:00,
2013-06-26 05:00:00,74.4,72.6,30.00,SW,223,2.0,2.0,94,0.00,,,0.00,Wunderground v.1.15,2013-06-26 09:00:00,
2013-06-26 05:10:00,74.2,72.4,30.00,SW,228,2.0,2.0,94,0.00,,,0.00,Wunderground v.1.15,2013-06-26 09:10:00,
2013-06-26 05:25:00,74.0,72.2,30.00,WSW,248,2.0,2.0,94,0.00,,,0.00,Wunderground v.1.15,2013-06-26 09:25:00,
2013-06-26 05:35:00,74.0,72.2,30.01,West,268,2.0,2.0,94,0.00,,,0.00,Wunderground v.1.15,2013-06-26 09:35:00,
2013-06-26 05:45:00,73.9,72.1,30.01,West,271,2.0,2.0,94,0.00,,,0.00,Wunderground v.1.15,2013-06-26 09:45:00,
2013-06-26 05:55:00,73.9,72.1,30.01,WSW,252,2.0,2.0,94,0.00,,,0.00,Wunderground v.1.15,2013-06-26 09:55:00,
2013-06-26 06:05:00,73.8,72.0,30.01,SW,228,2.0,3.0,94,0.00,,,0.00,Wunderground v.1.15,2013-06-26 10:05:00,
2013-06-26 06:19:00,73.7,71.9,30.02,South,182,2.0,3.0,94,0.00,,,0.00,Wunderground v.1.15,2013-06-26 10:19:00,
2013-06-26 06:29:00,73.7,71.9,30.02,SW,222,3.0,4.0,94,0.00,,,0.00,Wunderground v.1.15,2013-06-26 10:29:00,
2013-06-26 06:40:00,73.8,72.0,30.02,SSE,153,2.0,4.0,94,0.00,,,0.00,Wunderground v.1.15,2013-06-26 10:40:00,
2013-06-26 06:50:00,73.8,72.0,30.02,West,278,2.0,2.0,94,0.00,,,0.00,Wunderground v.1.15,2013-06-26 10:50:00,
2013-06-26 07:00:00,74.0,72.2,30.03,WNW,285,1.0,1.0,94,0.00,,,0.00,Wunderground v.1.15,2013-06-26 11:00:00,
2013-06-26 07:10:00,74.1,72.3,30.03,SW,227,1.0,1.0,94,0.00,,,0.00,Wunderground v.1.15,2013-06-26 11:10:00,
2013-06-26 07:24:00,74.4,72.6,30.02,SW,225,2.0,5.0,94,0.00,,,0.00,Wunderground v.1.15,2013-06-26 11:24:00,
2013-06-26 07:35:00,74.6,72.4,30.03,SW,225,2.0,3.0,93,0.00,,,0.00,Wunderground v.1.15,2013-06-26 11:35:00,
2013-06-26 07:45:00,74.6,72.4,30.03,SW,225,3.0,3.0,93,0.00,,,0.00,Wunderground v.1.15,2013-06-26 11:45:00,
2013-06-26 07:55:00,74.8,72.6,30.03,WSW,252,3.0,3.0,93,0.00,,,0.00,Wunderground v.1.15,2013-06-26 11:55:00,
2013-06-26 08:05:00,75.0,72.8,30.03,West,267,2.0,3.0,93,0.00,,,0.00,Wunderground v.1.15,2013-06-26 12:05:00,
2013-06-26 08:15:00,75.2,72.7,30.03,WSW,254,3.0,5.0,92,0.00,,,0.00,Wunderground v.1.15,2013-06-26 12:15:00,
2013-06-26 08:29:00,75.4,72.6,30.03,SW,214,4.0,6.0,91,0.00,,,0.00,Wunderground v.1.15,2013-06-26 12:29:00,
2013-06-26 08:40:00,75.7,72.9,30.03,SW,225,4.0,5.0,91,0.00,,,0.00,Wunderground v.1.15,2013-06-26 12:40:00,
2013-06-26 08:50:00,75.9,72.4,30.03,WSW,249,5.0,7.0,89,0.00,,,0.00,Wunderground v.1.15,2013-06-26 12:50:00,
2013-06-26 09:00:00,76.4,72.9,30.03,WSW,244,4.0,4.0,89,0.00,,,0.00,Wunderground v.1.15,2013-06-26 13:00:00,
2013-06-26 09:10:00,76.9,73.1,30.03,WSW,239,3.0,5.0,88,0.00,,,0.00,Wunderground v.1.15,2013-06-26 13:10:00,
2013-06-26 09:20:00,77.1,72.9,30.03,WSW,243,5.0,5.0,87,0.00,,,0.00,Wunderground v.1.15,2013-06-26 13:20:00,
2013-06-26 09:34:00,77.8,73.3,30.02,SW,236,3.0,3.0,86,0.00,,,0.00,Wunderground v.1.15,2013-06-26 13:34:00,
2013-06-26 09:45:00,78.6,73.4,30.02,SW,233,3.0,6.0,84,0.00,,,0.00,Wunderground v.1.15,2013-06-26 13:45:00,
2013-06-26 09:55:00,79.5,73.5,30.02,WSW,255,5.0,5.0,82,0.00,,,0.00,Wunderground v.1.15,2013-06-26 13:55:00,
2013-06-26 10:05:00,80.0,73.3,30.02,WSW,249,5.0,5.0,80,0.00,,,0.00,Wunderground v.1.15,2013-06-26 14:05:00,
2013-06-26 10:15:00,80.3,73.6,30.01,WSW,240,5.0,5.0,80,0.00,,,0.00,Wunderground v.1.15,2013-06-26 14:15:00,
2013-06-26 10:29:00,81.2,73.7,30.01,WSW,241,6.0,8.0,78,0.00,,,0.00,Wunderground v.1.15,2013-06-26 14:29:00,
2013-06-26 10:40:00,82.1,73.8,30.01,SW,217,5.0,5.0,76,0.00,,,0.00,Wunderground v.1.15,2013-06-26 14:40:00,
2013-06-26 10:50:00,83.0,73.4,30.01,West,275,6.0,6.0,73,0.00,,,0.00,Wunderground v.1.15,2013-06-26 14:50:00,
2013-06-26 11:00:00,83.1,71.9,30.00,West,262,7.0,7.0,69,0.00,,,0.00,Wunderground v.1.15,2013-06-26 15:00:00,
2013-06-26 11:10:00,83.5,71.8,30.00,West,269,8.0,8.0,68,0.00,,,0.00,Wunderground v.1.15,2013-06-26 15:10:00,
2013-06-26 11:20:00,84.1,72.4,30.00,WNW,286,6.0,8.0,68,0.00,,,0.00,Wunderground v.1.15,2013-06-26 15:20:00,
2013-06-26 11:35:00,84.6,73.3,30.00,WSW,255,6.0,6.0,69,0.00,,,0.00,Wunderground v.1.15,2013-06-26 15:35:00,
2013-06-26 11:45:00,84.6,73.3,30.00,West,260,6.0,6.0,69,0.00,,,0.00,Wunderground v.1.15,2013-06-26 15:45:00,
2013-06-26 11:55:00,85.0,74.1,30.00,SW,221,7.0,7.0,70,0.00,,,0.00,Wunderground v.1.15,2013-06-26 15:55:00,
2013-06-26 12:05:00,84.9,72.7,30.00,WSW,250,7.0,7.0,67,0.00,,,0.00,Wunderground v.1.15,2013-06-26 16:05:00,
2013-06-26 12:19:00,85.4,74.1,29.99,SSW,207,6.0,6.0,69,0.00,,,0.00,Wunderground v.1.15,2013-06-26 16:19:00,
2013-06-26 12:30:00,85.4,73.6,30.00,West,275,8.0,8.0,68,0.00,,,0.00,Wunderground v.1.15,2013-06-26 16:30:00,
2013-06-26 12:40:00,85.4,73.6,30.00,SW,222,7.0,7.0,68,0.00,,,0.00,Wunderground v.1.15,2013-06-26 16:40:00,
2013-06-26 12:50:00,86.1,74.3,29.99,WNW,285,6.0,6.0,68,0.00,,,0.00,Wunderground v.1.15,2013-06-26 16:50:00,
2013-06-26 13:00:00,86.0,74.2,29.99,SW,215,8.0,12.0,68,0.00,,,0.00,Wunderground v.1.15,2013-06-26 17:00:00,
2013-06-26 13:10:00,86.6,73.9,29.99,WSW,254,7.0,8.0,66,0.00,,,0.00,Wunderground v.1.15,2013-06-26 17:10:00,
2013-06-26 13:20:00,86.0,74.2,29.98,SSW,212,7.0,8.0,68,0.00,,,0.00,Wunderground v.1.15,2013-06-26 17:20:00,
2013-06-26 13:35:00,85.9,73.7,29.98,West,268,7.0,7.0,67,0.00,,,0.00,Wunderground v.1.15,2013-06-26 17:35:00,
2013-06-26 13:45:00,86.6,73.4,29.98,WSW,239,7.0,8.0,65,0.00,,,0.00,Wunderground v.1.15,2013-06-26 17:45:00,
2013-06-26 13:55:00,86.1,74.3,29.98,SW,229,7.0,7.0,68,0.00,,,0.00,Wunderground v.1.15,2013-06-26 17:55:00,
2013-06-26 14:05:00,86.7,73.5,29.98,WSW,248,7.0,7.0,65,0.00,,,0.00,Wunderground v.1.15,2013-06-26 18:05:00,
2013-06-26 14:15:00,81.9,69.4,29.99,North,360,9.0,9.0,66,0.00,,,0.00,Wunderground v.1.15,2013-06-26 18:15:00,
2013-06-26 14:25:00,76.4,69.8,29.98,NNW,327,7.0,7.0,80,0.00,,,0.00,Wunderground v.1.15,2013-06-26 18:25:00,
2013-06-26 14:39:00,75.3,70.5,29.97,WNW,290,4.0,4.0,85,0.00,,,0.00,Wunderground v.1.15,2013-06-26 18:39:00,
2013-06-26 14:49:00,75.3,70.8,29.96,West,281,3.0,7.0,86,0.00,,,0.00,Wunderground v.1.15,2013-06-26 18:49:00,
2013-06-26 14:54:00,75.2,70.7,29.96,West,271,4.0,7.0,86,0.00,,,0.00,Wunderground v.1.15,2013-06-26 18:54:00,
2013-06-26 14:59:00,75.5,70.7,29.96,West,260,3.0,3.0,85,0.00,,,0.00,Wunderground v.1.15,2013-06-26 18:59:00,
2013-06-26 15:09:00,76.7,71.5,29.96,East,92,2.0,6.0,84,0.00,,,0.00,Wunderground v.1.15,2013-06-26 19:09:00,
2013-06-26 15:20:00,77.3,72.4,29.97,ESE,114,5.0,5.0,85,0.00,,,0.00,Wunderground v.1.15,2013-06-26 19:20:00,
2013-06-26 15:30:00,78.7,72.7,29.96,ESE,103,6.0,6.0,82,0.00,,,0.00,Wunderground v.1.15,2013-06-26 19:30:00,
2013-06-26 15:40:00,79.5,73.5,29.95,SE,137,4.0,4.0,82,0.00,,,0.00,Wunderground v.1.15,2013-06-26 19:40:00,
2013-06-26 15:50:00,81.8,74.3,29.96,ESE,113,6.0,7.0,78,0.00,,,0.00,Wunderground v.1.15,2013-06-26 19:50:00,
2013-06-26 16:00:00,81.8,74.3,29.95,SE,136,7.0,9.0,78,0.00,,,0.00,Wunderground v.1.15,2013-06-26 20:00:00,
2013-06-26 16:09:00,82.1,74.9,29.95,ESE,113,6.0,6.0,79,0.00,,,0.00,Wunderground v.1.15,2013-06-26 20:09:00,
2013-06-26 16:15:00,82.0,75.2,29.94,East,98,6.0,8.0,80,0.00,,,0.00,Wunderground v.1.15,2013-06-26 20:15:00,
2013-06-26 16:25:00,83.3,76.5,29.94,South,177,7.0,7.0,80,0.00,,,0.00,Wunderground v.1.15,2013-06-26 20:25:00,
2013-06-26 16:34:00,82.8,76.4,29.94,SSE,155,8.0,10.0,81,0.00,,,0.00,Wunderground v.1.15,2013-06-26 20:34:00,
2013-06-26 16:40:00,82.7,76.3,29.94,SSE,152,8.0,12.0,81,0.00,,,0.00,Wunderground v.1.15,2013-06-26 20:40:00,
2013-06-26 16:50:00,82.1,75.7,29.94,SSE,155,8.0,10.0,81,0.00,,,0.00,Wunderground v.1.15,2013-06-26 20:50:00,
2013-06-26 17:00:00,81.3,74.9,29.93,SSE,163,8.0,8.0,81,0.00,,,0.00,Wunderground v.1.15,2013-06-26 21:00:00,
2013-06-26 17:09:00,80.6,74.2,29.93,South,186,9.0,9.0,81,0.00,,,0.00,Wunderground v.1.15,2013-06-26 21:09:00,
2013-06-26 17:14:00,80.4,74.4,29.93,SSE,156,8.0,9.0,82,0.00,,,0.00,Wunderground v.1.15,2013-06-26 21:14:00,
2013-06-26 17:24:00,80.0,74.4,29.92,SSE,150,6.0,8.0,83,0.00,,,0.00,Wunderground v.1.15,2013-06-26 21:24:00,
2013-06-26 17:35:00,80.1,73.7,29.92,SW,214,6.0,9.0,81,0.00,,,0.00,Wunderground v.1.15,2013-06-26 21:35:00,
2013-06-26 17:45:00,80.6,73.9,29.92,South,186,7.0,7.0,80,0.00,,,0.00,Wunderground v.1.15,2013-06-26 21:45:00,
2013-06-26 17:55:00,81.1,73.6,29.92,SSW,202,7.0,7.0,78,0.00,,,0.00,Wunderground v.1.15,2013-06-26 21:55:00,
2013-06-26 18:05:00,80.9,73.4,29.92,SW,224,9.0,9.0,78,0.00,,,0.00,Wunderground v.1.15,2013-06-26 22:05:00,
2013-06-26 18:14:00,81.1,73.6,29.92,SW,221,9.0,12.0,78,0.00,,,0.00,Wunderground v.1.15,2013-06-26 22:14:00,
2013-06-26 18:20:00,81.1,73.6,29.93,SSW,213,9.0,9.0,78,0.00,,,0.00,Wunderground v.1.15,2013-06-26 22:20:00,
2013-06-26 18:30:00,81.3,73.8,29.92,SSW,211,7.0,12.0,78,0.00,,,0.00,Wunderground v.1.15,2013-06-26 22:30:00,
2013-06-26 18:40:00,81.2,73.3,29.92,WSW,246,9.0,9.0,77,0.00,,,0.00,Wunderground v.1.15,2013-06-26 22:40:00,
2013-06-26 18:50:00,80.8,73.3,29.92,SSW,200,9.0,9.0,78,0.00,,,0.00,Wunderground v.1.15,2013-06-26 22:50:00,
2013-06-26 19:00:00,80.6,73.9,29.92,SSW,203,8.0,8.0,80,0.00,,,0.00,Wunderground v.1.15,2013-06-26 23:00:00,
2013-06-26 19:09:00,80.6,74.2,29.92,SW,216,7.0,7.0,81,0.00,,,0.00,Wunderground v.1.15,2013-06-26 23:09:00,
2013-06-26 19:15:00,80.5,74.5,29.92,SSW,202,6.0,7.0,82,0.00,,,0.00,Wunderground v.1.15,2013-06-26 23:15:00,
2013-06-26 19:25:00,80.5,74.9,29.92,SSW,197,6.0,7.0,83,0.00,,,0.00,Wunderground v.1.15,2013-06-26 23:25:00,
2013-06-26 19:35:00,80.3,75.0,29.92,SSW,206,7.0,7.0,84,0.00,,,0.00,Wunderground v.1.15,2013-06-26 23:35:00,
2013-06-26 19:44:00,80.2,74.9,29.93,SSW,192,6.0,8.0,84,0.00,,,0.00,Wunderground v.1.15,2013-06-26 23:44:00,
2013-06-26 19:50:00,80.1,74.8,29.93,SSW,211,6.0,7.0,84,0.00,,,0.00,Wunderground v.1.15,2013-06-26 23:50:00,
2013-06-26 20:00:00,80.1,74.8,29.93,SSW,205,6.0,8.0,84,0.00,,,0.00,Wunderground v.1.15,2013-06-27 00:00:00,
2013-06-26 20:09:00,80.0,74.4,29.93,SW,227,6.0,8.0,83,0.00,,,0.00,Wunderground v.1.15,2013-06-27 00:09:00,
2013-06-26 20:14:00,79.9,74.3,29.93,SW,235,6.0,8.0,83,0.00,,,0.00,Wunderground v.1.15,2013-06-27 00:14:00,
2013-06-26 20:24:00,79.7,74.1,29.94,SSW,212,6.0,8.0,83,0.00,,,0.00,Wunderground v.1.15,2013-06-27 00:24:00,
2013-06-26 20:30:00,79.6,74.0,29.94,SW,214,6.0,6.0,83,0.00,,,0.00,Wunderground v.1.15,2013-06-27 00:30:00,
2013-06-26 20:39:00,79.3,74.0,29.94,SW,219,6.0,6.0,84,0.00,,,0.00,Wunderground v.1.15,2013-06-27 00:39:00,
2013-06-26 20:44:00,79.3,74.0,29.94,SW,225,6.0,6.0,84,0.00,,,0.00,Wunderground v.1.15,2013-06-27 00:44:00,
2013-06-26 20:54:00,79.0,74.1,29.94,SSW,209,6.0,7.0,85,0.00,,,0.00,Wunderground v.1.15,2013-06-27 00:54:00,
2013-06-26 21:05:00,78.7,73.8,29.93,SSW,212,7.0,7.0,85,0.00,,,0.00,Wunderground v.1.15,2013-06-27 01:05:00,
2013-06-26 21:15:00,78.6,73.7,29.93,SW,223,8.0,9.0,85,0.00,,,0.00,Wunderground v.1.15,2013-06-27 01:15:00,
2013-06-26 21:25:00,78.4,73.2,29.94,SW,218,9.0,9.0,84,0.00,,,0.00,Wunderground v.1.15,2013-06-27 01:25:00,
2013-06-26 21:35:00,78.2,72.6,29.94,SSW,213,7.0,8.0,83,0.00,,,0.00,Wunderground v.1.15,2013-06-27 01:35:00,
2013-06-26 21:45:00,78.2,71.9,29.95,SSW,202,7.0,8.0,81,0.00,,,0.00,Wunderground v.1.15,2013-06-27 01:45:00,
2013-06-26 21:55:00,78.0,71.0,29.96,WSW,253,7.0,8.0,79,0.00,,,0.00,Wunderground v.1.15,2013-06-27 01:55:00,
2013-06-26 22:04:00,77.8,70.8,29.96,WSW,243,6.0,6.0,79,0.00,,,0.00,Wunderground v.1.15,2013-06-27 02:04:00,
2013-06-26 22:10:00,77.6,70.6,29.96,SW,236,5.0,6.0,79,0.00,,,0.00,Wunderground v.1.15,2013-06-27 02:10:00,
2013-06-26 22:20:00,77.3,70.6,29.96,SW,217,4.0,5.0,80,0.00,,,0.00,Wunderground v.1.15,2013-06-27 02:20:00,
2013-06-26 22:29:00,77.1,70.8,29.95,SW,227,5.0,5.0,81,0.00,,,0.00,Wunderground v.1.15,2013-06-27 02:29:00,
2013-06-26 22:34:00,77.0,71.1,29.95,SW,236,5.0,5.0,82,0.00,,,0.00,Wunderground v.1.15,2013-06-27 02:34:00,
2013-06-26 22:44:00,76.8,71.2,29.96,West,265,4.0,5.0,83,0.00,,,0.00,Wunderground v.1.15,2013-06-27 02:44:00,
2013-06-26 22:49:00,76.6,71.4,29.96,West,269,4.0,4.0,84,0.00,,,0.00,Wunderground v.1.15,2013-06-27 02:49:00,
2013-06-26 22:59:00,76.2,71.0,29.97,West,275,2.0,2.0,84,0.00,,,0.00,Wunderground v.1.15,2013-06-27 02:59:00,
2013-06-26 23:05:00,76.1,70.9,29.98,WNW,286,3.0,3.0,84,0.00,,,0.00,Wunderground v.1.15,2013-06-27 03:05:00,
2013-06-26 23:15:00,75.9,71.1,29.99,NNE,13,2.0,3.0,85,0.00,,,0.00,Wunderground v.1.15,2013-06-27 03:15:00,
2013-06-26 23:24:00,75.8,71.3,30.00,NNE,22,5.0,5.0,86,0.00,,,0.00,Wunderground v.1.15,2013-06-27 03:24:00,
2013-06-26 23:29:00,75.8,71.7,29.99,ENE,57,4.0,4.0,87,0.00,,,0.00,Wunderground v.1.15,2013-06-27 03:29:00,
2013-06-26 23:39:00,75.7,71.6,29.99,ENE,66,1.0,2.0,87,0.00,,,0.00,Wunderground v.1.15,2013-06-27 03:39:00,
2013-06-26 23:50:00,75.7,71.9,29.97,WSW,254,2.0,2.0,88,0.00,,,0.00,Wunderground v.1.15,2013-06-27 03:50:00,
2013-06-26 23:59:00,75.5,72.0,29.97,SSW,210,0.0,0.0,89,0.00,,,0.00,Wunderground v.1.15,2013-06-27 03:59:00,